Miscellaneous Local Product
Issued by NWS Hastings, NE

Home | Current Version | Previous Version | Text Only | Print | Product List | Glossary Off
Versions: 1 2 3 4 5 6 7 8 9 10 11 12 13 14 15 16 17 18 19 20 21 22 23 24 25 26 27 28 29 30 31 32 33 34 35 36 37 38 39 40 41 42 43 44 45 46 47 48 49 50

000
AXUS43 KGID 300202
MISGRI

GID CWA HOURLY WEATHER ROUNDUP
NATIONAL WEATHER SERVICE HASTINGS NE
900 PM CDT FRI MAY 29 2015

NOTE: "FAIR" INDICATES FEW OR NO CLOUDS BELOW 12,000 FEET WITH NO
SIGNIFICANT WEATHER AND/OR OBSTRUCTIONS TO VISIBILITY.

...SOUTH CENTRAL NEBRASKA...

CITY           SKY/WX    TMP DP  RH WIND       PRES   REMARKS
GRAND ISLAND   CLOUDY    55  47  74 N23G30    30.12R
HASTINGS       CLOUDY    56  48  74 N23G33    30.11R
KEARNEY        CLOUDY    55  46  71 N25G33    30.13R
ORD            CLOUDY    50  46  86 N26G32    30.14R
YORK           CLOUDY    57  50  77 N20G28    30.07R
AURORA         CLOUDY    56  51  86 N24       30.10R
LEXINGTON      CLOUDY    53  49  86 N17G26    30.16R
HOLDREGE       CLOUDY    55  49  83 N20G35    30.12R
HEBRON         RAIN      60  53  78 N25G37    30.04R

...NEBRASKA PANHANDLE...

CITY           SKY/WX    TMP DP  RH WIND       PRES   REMARKS
CHADRON        CLOUDY    49  44  83 CALM      30.29S
ALLIANCE       CLOUDY    46  44  93 N8        30.28R
SCOTTSBLUFF    CLOUDY    50  46  86 N9        30.31R
SIDNEY         CLOUDY    49  45  86 N15       30.29R

...WESTERN AND NORTH CENTRAL NEBRASKA...

CITY           SKY/WX    TMP DP  RH WIND       PRES   REMARKS
VALENTINE      MOCLDY    47  43  86 N10       30.24S
AINSWORTH      CLOUDY    49  47  95 N18       30.22S
ONEILL         CLOUDY    49  48  96 N17       30.17S
BROKEN BOW     CLOUDY    51  47  86 N22       30.16R
IMPERIAL       CLOUDY    53  45  74 N18       30.23R
NORTH PLATTE   CLOUDY    51  46  83 N14G26    30.20R
MCCOOK         CLOUDY    55  48  77 N20G26    30.17R

...EASTERN NEBRASKA...

CITY           SKY/WX    TMP DP  RH WIND       PRES   REMARKS
NORFOLK        CLOUDY    52  49  89 N20G35    30.11R
SO SIOUX CITY  CLOUDY    55  50  83 N20G25    30.06R
TEKAMAH        CLOUDY    60  54  80 N28       30.02R
COLUMBUS       CLOUDY    54  45  71 N17G28    30.10R
ALBION         DRIZZLE   51  47  85 N21G32    30.11R
OMAHA EPPLEY   CLOUDY    63  59  87 N26G33    29.97R
OFFUTT AFB     CLOUDY    65  62  87 NW21G26   29.96R
MILLARD        CLOUDY    65  61  85 N14G23    29.97R
LINCOLN        CLOUDY    63  56  78 N24G33    30.03R
NEBRASKA CITY  CLOUDY    70  60  72 NW14G31   29.95R
BEATRICE       CLOUDY    67  59  75 NW22      29.98R
FALLS CITY     CLOUDY    70  65  84 S6        29.93R

...NORTHERN KANSAS...

CITY           SKY/WX    TMP DP  RH WIND       PRES   REMARKS
GOODLAND       PTCLDY    54  48  80 N20G30    30.20R
HILL CITY      CLOUDY    60  54  80 N15G22    30.12R
NORTON         CLOUDY    55  46  71 N21G32    30.13R
PHILLIPSBURG   LGT RAIN  61  55  82 N17G25    30.11R
HAYS           CLOUDY    59  52  77 N15       30.05S
RUSSELL        RAIN      59  57  93 N15       30.05R FOG
CONCORDIA      TSTM      60  57  89 NW17G31   30.07R
SALINA         CLOUDY    75  61  61 W5        29.97R
TOPEKA         CLOUDY    69  66  90 S3        29.95R



USA.gov is the U.S. government's official web portal to all federal, state and local government web resources and services.